FW7539 Weather Reports


time (UTC)temp
C
wind
direction
speed
KPH
gust
KPH
rain 1hr
cm
rain 24hr
cm
rain mn
cm
humidity
%
barometer
mb
20260902212503 35 203 3.2 6.4 0.00 0.00 0.00 50 1015.5
20260902212003 35 182 3.2 8.0 0.00 0.00 0.00 48 1015.6
20260902211503 34 208 3.2 8.0 0.00 0.00 0.00 49 1015.6
20260902211003 34 239 3.2 12.9 0.00 0.00 0.00 50 1015.6
20260902210503 34 213 3.2 12.9 0.00 0.00 0.00 50 1015.7
20260902210003 34 162 3.2 9.7 0.00 0.00 0.00 49 1015.7
20260902205504 34 176 3.2 9.7 0.00 0.00 0.00 48 1015.7
20260902205024 34 182 3.2 8.0 0.00 0.00 0.00 48 1015.8
20260902204503 34 226 3.2 8.0 0.00 0.00 0.00 48 1015.8
20260902204003 35 261 3.2 6.4 0.00 0.00 0.00 50 1015.8
20260902203503 34 230 3.2 6.4 0.00 0.00 0.00 50 1015.9
20260902203003 34 174 3.2 14.5 0.00 0.00 0.00 50 1015.9
20260902202503 34 147 4.8 14.5 0.00 0.00 0.00 49 1015.8
20260902202003 34 158 3.2 9.7 0.00 0.00 0.00 48 1015.8
20260902201503 35 244 3.2 9.7 0.00 0.00 0.00 49 1015.9
20260902201003 35 225 3.2 9.7 0.00 0.00 0.00 48 1015.9
20260902200503 35 223 3.2 9.7 0.00 0.00 0.00 48 1016.0
20260902200003 35 261 3.2 14.5 0.00 0.00 0.00 48 1016.0
20260902195503 34 244 4.8 14.5 0.00 0.00 0.00 48 1016.0
20260902195004 34 194 4.8 12.9 0.00 0.00 0.00 47 1016.2
20260902194503 34 201 3.2 6.4 0.00 0.00 0.00 49 1016.1
20260902194004 34 225 1.6 11.3 0.00 0.00 0.00 50 1016.2
20260902193525 33 231 3.2 11.3 0.00 0.00 0.00 49 1016.3
20260902193004 34 251 3.2 9.7 0.00 0.00 0.00 49 1016.3
20260902192504 34 213 3.2 8.0 0.00 0.00 0.00 51 1016.4
20260902192004 34 200 1.6 8.0 0.00 0.00 0.00 50 1016.6
20260902191504 33 211 3.2 11.3 0.00 0.00 0.00 51 1016.6
20260902191004 33 209 4.8 12.9 0.00 0.00 0.00 50 1016.7
20260902190525 33 216 4.8 12.9 0.00 0.00 0.00 49 1016.7
20260902190024 33 248 3.2 14.5 0.00 0.00 0.00 51 1016.7
20260902185503 33 245 3.2 14.5 0.00 0.00 0.00 49 1016.8
20260902185003 33 265 3.2 12.9 0.00 0.00 0.00 51 1016.8
20260902184503 33 251 4.8 12.9 0.00 0.00 0.00 49 1016.8
20260902184003 33 228 3.2 9.7 0.00 0.00 0.00 49 1016.8
20260902183503 33 229 3.2 9.7 0.00 0.00 0.00 50 1016.7
20260902183003 33 236 3.2 11.3 0.00 0.00 0.00 50 1016.9
20260902182504 33 262 4.8 16.1 0.00 0.00 0.00 52 1016.9
20260902182024 33 266 4.8 16.1 0.00 0.00 0.00 50 1016.9
20260902181504 33 237 3.2 14.5 0.00 0.00 0.00 52 1017.0
20260902181025 33 251 3.2 14.5 0.00 0.00 0.00 50 1017.0
20260902180508 33 247 3.2 14.5 0.00 0.00 0.00 51 1017.0
20260902180013 33 243 3.2 12.9 0.00 0.00 0.00 50 1017.1
20260902175525 33 231 4.8 12.9 0.00 0.00 0.00 50 1017.1
20260902175024 33 228 3.2 9.7 0.00 0.00 0.00 51 1017.2
20260902174503 33 224 3.2 16.1 0.00 0.00 0.00 51 1017.2
20260902174004 33 194 4.8 16.1 0.00 0.00 0.00 51 1017.3
20260902173503 33 172 4.8 12.9 0.00 0.00 0.00 53 1017.4
20260902173010 33 193 3.2 11.3 0.00 0.00 0.00 56 1017.4
20260902172510 33 208 3.2 16.1 0.00 0.00 0.00 55 1017.5
20260902172031 33 212 3.2 16.1 0.00 0.00 0.00 56 1017.5
20260902171510 33 230 3.2 12.9 0.00 0.00 0.00 55 1017.5
20260902171010 33 237 3.2 16.1 0.00 0.00 0.00 56 1017.6
20260902170510 33 197 4.8 16.1 0.00 0.00 0.00 56 1017.5
20260902170011 33 189 3.2 16.1 0.00 0.00 0.00 57 1017.6
20260902165510 33 229 3.2 16.1 0.00 0.00 0.00 56 1017.7
20260902165010 32 211 3.2 11.3 0.00 0.00 0.00 55 1017.7
20260902164510 33 162 3.2 11.3 0.00 0.00 0.00 56 1017.7
20260902164010 33 146 3.2 11.3 0.00 0.00 0.00 56 1017.7
20260902163510 33 181 3.2 11.3 0.00 0.00 0.00 55 1017.8
20260902163011 32 209 3.2 12.9 0.00 0.00 0.00 55 1017.8
20260902162531 32 229 1.6 12.9 0.00 0.00 0.00 56 1017.8
20260902162010 32 228 1.6 8.0 0.00 0.00 0.00 58 1017.8
20260902160446 32 245 3.2 12.9 0.00 0.00 0.00 57 1018.0
20260902155946 32 243 3.2 8.0 0.00 0.00 0.00 58 1017.9
20260902155446 32 241 3.2 8.0 0.00 0.00 0.00 59 1017.9
20260902154946 32 220 3.2 9.7 0.00 0.00 0.00 58 1018.0
20260902154446 32 218 3.2 9.7 0.00 0.00 0.00 59 1018.1
20260902153946 31 231 3.2 9.7 0.00 0.00 0.00 62 1018.0
20260902153446 31 236 3.2 9.7 0.00 0.00 0.00 59 1018.0
20260902153007 31 230 1.6 8.0 0.00 0.00 0.00 62 1018.1
20260902152447 31 213 3.2 8.0 0.00 0.00 0.00 60 1018.2
20260902151946 31 237 3.2 11.3 0.00 0.00 0.00 62 1018.2
20260902151446 31 257 3.2 11.3 0.00 0.00 0.00 62 1018.1
20260902150946 31 266 3.2 9.7 0.00 0.00 0.00 63 1018.2
20260902150446 30 253 3.2 9.7 0.00 0.00 0.00 63 1018.3
20260902145946 30 241 3.2 9.7 0.00 0.00 0.00 64 1018.2
20260902145446 30 234 3.2 9.7 0.00 0.00 0.00 65 1018.2
20260902144946 30 241 3.2 9.7 0.00 0.00 0.00 64 1018.2
20260902144447 30 242 3.2 9.7 0.00 0.00 0.00 65 1018.2
20260902144008 30 236 3.2 6.4 0.00 0.00 0.00 66 1018.3
20260902143447 29 258 3.2 9.7 0.00 0.00 0.00 66 1018.2
20260902142947 29 265 3.2 9.7 0.00 0.00 0.00 67 1018.2
20260902142447 28 267 3.2 6.4 0.00 0.00 0.00 67 1018.1
20260902141947 28 250 3.2 9.7 0.00 0.00 0.00 68 1018.1
20260902141446 28 241 1.6 9.7 0.00 0.00 0.00 70 1018.2
20260902140946 28 238 1.6 8.0 0.00 0.00 0.00 69 1018.1
20260902140446 28 223 3.2 8.0 0.00 0.00 0.00 69 1018.2
20260902135946 28 200 1.6 6.4 0.00 0.00 0.00 70 1018.2
20260902135446 27 208 1.6 6.4 0.00 0.00 0.00 71 1018.2
20260902134947 27 230 1.6 6.4 0.00 0.00 0.00 71 1018.2
20260902134508 27 243 3.2 8.0 0.00 0.00 0.00 71 1018.3
20260902133947 27 277 1.6 8.0 0.00 0.00 0.00 71 1018.3
20260902133446 27 288 1.6 6.4 0.00 0.00 0.00 72 1018.3
20260902132946 27 256 1.6 9.7 0.00 0.00 0.00 74 1018.2
20260902132446 26 232 1.6 9.7 0.00 0.00 0.00 73 1018.3
20260902132007 26 211 1.6 4.8 0.00 0.00 0.00 75 1018.2
20260902131507 26 245 1.6 4.8 0.00 0.00 0.00 75 1018.2
20260902131007 26 264 1.6 3.2 0.00 0.00 0.00 76 1018.1
20260902130446 26 269 1.6 4.8 0.00 0.00 0.00 77 1018.1
20260902125946 25 276 1.6 4.8 0.00 0.00 0.00 77 1018.1
20260902125446 25 273 1.6 3.2 0.00 0.00 0.00 77 1018.2
20260902124948 25 276 0.0 3.2 0.00 0.00 0.00 78 1018.1
20260902124447 25 247 0.0 3.2 0.00 0.00 0.00 78 1018.1
20260902123946 25 200 0.0 3.2 0.00 0.00 0.00 79 1018.1
20260902123446 25 213 0.0 3.2 0.00 0.00 0.00 80 1018.0
20260902122946 24 234 0.0 4.8 0.00 0.00 0.00 80 1018.0
20260902122446 24 230 0.0 4.8 0.00 0.00 0.00 81 1018.0
20260902121946 23 218 0.0 1.6 0.00 0.00 0.00 82 1018.0
20260902121446 23 254 0.0 3.2 0.00 0.00 0.00 82 1018.0
20260902120947 23 291 0.0 3.2 0.00 0.00 0.00 83 1017.9
20260902120507 23 292 0.0 1.6 0.00 0.00 0.00 83 1017.9
20260902120007 23 292 0.0 3.2 0.00 0.00 0.00 83 1017.9
20260902115446 23 292 0.0 3.2 0.00 0.00 0.00 84 1017.9
20260902114947 22 292 0.0 1.6 0.00 0.00 0.00 84 1017.8
20260902114447 22 292 0.0 1.6 0.00 0.00 0.00 84 1017.8
20260902113947 22 292 0.0 1.6 0.00 0.00 0.00 84 1017.6
20260902113507 22 0 0.0 0.0 0.00 0.00 0.00 84 1017.6
20260902112946 22 0 0.0 0.0 0.00 0.00 0.00 84 1017.5
20260902112446 22 0 0.0 0.0 0.00 0.00 0.00 84 1017.5
20260902111946 22 0 0.0 0.0 0.00 0.00 0.00 84 1017.5
20260902111446 22 0 0.0 0.0 0.00 0.00 0.00 84 1017.4
20260902110946 22 0 0.0 0.0 0.00 0.00 0.00 84 1017.4
20260902110446 22 0 0.0 0.0 0.00 0.00 0.00 84 1017.3
20260902105946 22 0 0.0 0.0 0.00 0.00 0.00 84 1017.4
20260902105446 22 0 0.0 0.0 0.00 0.00 0.00 84 1017.4
20260902104946 22 0 0.0 0.0 0.00 0.00 0.00 84 1017.4
20260902104447 22 0 0.0 0.0 0.00 0.00 0.00 84 1017.4
20260902103947 22 0 0.0 0.0 0.00 0.00 0.00 84 1017.4
20260902103508 22 0 0.0 0.0 0.00 0.00 0.00 84 1017.4
20260902102947 22 0 0.0 0.0 0.00 0.00 0.00 84 1017.4
20260902102447 22 0 0.0 0.0 0.00 0.00 0.00 84 1017.4
20260902101947 22 293 0.0 1.6 0.00 0.00 0.00 84 1017.3
20260902101508 22 293 0.0 1.6 0.00 0.00 0.00 84 1017.4
20260902100947 23 293 0.0 1.6 0.00 0.00 0.00 84 1017.3
20260902100447 22 293 0.0 1.6 0.00 0.00 0.00 84 1017.3
20260902095947 22 293 0.0 1.6 0.00 0.00 0.00 84 1017.3
20260902095507 23 293 0.0 1.6 0.00 0.00 0.00 84 1017.2
20260902094946 23 293 0.0 1.6 0.00 0.00 0.00 84 1017.2
20260902094446 23 293 0.0 1.6 0.00 0.00 0.00 83 1017.2
20260902093946 23 293 0.0 1.6 0.00 0.00 0.00 83 1017.2
20260902093447 23 293 0.0 1.6 0.00 0.00 0.00 83 1017.2
20260902092947 23 293 0.0 1.6 0.00 0.00 0.00 83 1017.3
20260902092447 23 293 0.0 1.6 0.00 0.00 0.00 83 1017.3
20260902091947 23 0 0.0 0.0 0.00 0.00 0.00 83 1017.2
20260902091447 23 0 0.0 0.0 0.00 0.00 0.00 83 1017.2
20260902090947 23 0 0.0 0.0 0.00 0.00 0.00 83 1017.1
20260902090447 23 293 0.0 1.6 0.00 0.00 0.00 83 1017.0
20260902085947 23 293 0.0 1.6 0.00 0.00 0.00 83 1017.0
20260902085447 23 293 0.0 1.6 0.00 0.00 0.00 83 1017.0
20260902084947 23 293 0.0 1.6 0.00 0.00 0.00 83 1017.0
20260902084447 23 293 0.0 1.6 0.00 0.00 0.00 83 1016.8
20260902083947 23 0 0.0 0.0 0.00 0.00 0.00 83 1016.7
20260902083447 23 0 0.0 0.0 0.00 0.00 0.00 83 1016.6
20260902082946 23 0 0.0 0.0 0.00 0.00 0.00 83 1016.6
20260902082508 23 0 0.0 0.0 0.00 0.00 0.00 83 1016.6
20260902081947 23 293 0.0 1.6 0.00 0.00 0.00 82 1016.6
20260902081447 23 293 0.0 1.6 0.00 0.00 0.00 82 1016.6
20260902080946 23 293 0.0 1.6 0.00 0.00 0.00 82 1016.5
20260902080447 23 293 0.0 1.6 0.00 0.00 0.00 82 1016.5
20260902080008 23 293 0.0 1.6 0.00 0.00 0.00 82 1016.5
20260902075447 23 0 0.0 0.0 0.00 0.00 0.00 81 1016.5
20260902074946 23 293 0.0 1.6 0.00 0.00 0.00 81 1016.5
20260902074446 23 293 0.0 1.6 0.00 0.00 0.00 81 1016.4
20260902073946 23 293 0.0 1.6 0.00 0.00 0.00 81 1016.4
20260902073447 23 293 0.0 1.6 0.00 0.00 0.00 81 1016.4
20260902072947 23 293 0.0 1.6 0.00 0.00 0.00 80 1016.5
20260902072447 23 293 0.0 3.2 0.00 0.00 0.00 81 1016.4
20260902071946 23 293 0.0 3.2 0.00 0.00 0.00 80 1016.4
20260902071447 23 293 0.0 1.6 0.00 0.00 0.00 81 1016.4
20260902070947 24 293 0.0 1.6 0.00 0.00 0.00 81 1016.4
20260902070447 24 293 0.0 1.6 0.00 0.00 0.00 81 1016.4
20260902065946 24 293 0.0 1.6 0.00 0.00 0.00 81 1016.4
20260902065446 23 293 0.0 1.6 0.00 0.00 0.00 81 1016.5
20260902064946 23 293 0.0 1.6 0.00 0.00 0.00 81 1016.4
20260902064447 23 293 0.0 1.6 0.00 0.00 0.00 81 1016.4
20260902064007 24 293 0.0 1.6 0.00 0.00 0.00 81 1016.4
20260902063446 24 293 0.0 1.6 0.00 0.00 0.00 81 1016.4
20260902062946 24 293 0.0 1.6 0.00 0.00 0.00 80 1016.4
20260902062446 24 293 0.0 1.6 0.00 0.00 0.00 81 1016.4
20260902061947 24 293 0.0 1.6 0.00 0.00 0.00 81 1016.5
20260902061508 24 293 0.0 1.6 0.00 0.00 0.00 80 1016.5
20260902060947 24 293 0.0 1.6 0.00 0.00 0.00 80 1016.5
20260902060447 24 0 0.0 0.0 0.00 0.00 0.00 80 1016.5
20260902055947 24 0 0.0 0.0 0.00 0.00 0.00 80 1016.5
20260902055508 24 0 0.0 0.0 0.00 0.00 0.00 80 1016.5
20260902055008 24 0 0.0 0.0 0.00 0.00 0.00 79 1016.6
20260902054447 24 0 0.0 0.0 0.00 0.00 0.00 80 1016.5
20260902053947 24 0 0.0 0.0 0.00 0.00 0.00 79 1016.5
20260902053447 24 0 0.0 0.0 0.00 0.00 0.00 79 1016.5
20260902052947 25 0 0.0 0.0 0.00 0.00 0.00 79 1016.6
20260902052447 25 0 0.0 0.0 0.00 0.00 0.00 78 1016.6
20260902051946 25 0 0.0 0.0 0.00 0.00 0.00 78 1016.6
20260902051446 25 0 0.0 0.0 0.00 0.00 0.00 78 1016.6
20260902050946 25 0 0.0 0.0 0.00 0.00 0.00 78 1016.6
20260902050446 25 0 0.0 0.0 0.00 0.00 0.00 78 1016.6
20260902045947 25 0 0.0 0.0 0.00 0.00 0.00 78 1016.6
20260902045446 25 293 0.0 1.6 0.00 0.00 0.00 78 1016.6
20260902044946 25 293 0.0 1.6 0.00 0.00 0.00 78 1016.5
20260902044446 25 293 0.0 1.6 0.00 0.00 0.00 77 1016.6
20260902043946 25 0 0.0 0.0 0.00 0.00 0.00 77 1016.5
20260902043446 25 0 0.0 0.0 0.00 0.00 0.00 77 1016.5
20260902042947 25 0 0.0 0.0 0.00 0.00 0.00 77 1016.5
20260902042508 25 0 0.0 0.0 0.00 0.00 0.00 76 1016.6
20260902042008 25 0 0.0 0.0 0.00 0.00 0.00 77 1016.6
20260902041447 25 0 0.0 0.0 0.00 0.00 0.00 76 1016.6
20260902040947 25 0 0.0 0.0 0.00 0.00 0.00 76 1016.6
20260902040447 25 0 0.0 0.0 0.00 0.00 0.00 76 1016.6
20260902040007 26 0 0.0 0.0 0.00 0.00 0.00 75 1016.6
20260902035446 26 0 0.0 0.0 0.00 0.00 0.00 74 1016.7
20260902035007 26 293 0.0 1.6 0.00 0.00 0.00 74 1016.6
20260902034507 26 293 0.0 1.6 0.00 0.00 0.00 73 1016.6
20260902033946 26 293 0.0 1.6 0.00 0.00 0.00 73 1016.7
20260902033447 26 293 0.0 1.6 0.00 0.00 0.00 73 1016.7
20260902032947 26 293 0.0 1.6 0.00 0.00 0.00 73 1016.6
20260902032447 26 293 0.0 1.6 0.00 0.00 0.00 73 1016.6
20260902031947 27 293 0.0 1.6 0.00 0.00 0.00 72 1016.6
20260902031447 27 293 0.0 1.6 0.00 0.00 0.00 70 1016.6
20260902030947 27 293 0.0 3.2 0.00 0.00 0.00 70 1016.6
20260902030447 27 293 0.0 3.2 0.00 0.00 0.00 69 1016.5
20260902025946 27 293 0.0 3.2 0.00 0.00 0.00 69 1016.5
20260902025446 27 293 0.0 3.2 0.00 0.00 0.00 68 1016.6
20260902024946 27 293 0.0 3.2 0.00 0.00 0.00 69 1016.7
20260902024446 27 258 0.0 4.8 0.00 0.00 0.00 68 1016.6
20260902023947 27 243 1.6 4.8 0.00 0.00 0.00 69 1016.6
20260902023447 27 235 0.0 4.8 0.00 0.00 0.00 69 1016.5
20260902022947 27 234 0.0 1.6 0.00 0.00 0.00 70 1016.5
20260902022447 27 234 0.0 1.6 0.00 0.00 0.00 70 1016.6
20260902021947 27 234 0.0 1.6 0.00 0.00 0.00 70 1016.6
20260902021508 27 238 0.0 3.2 0.00 0.00 0.00 70 1016.5
20260902020947 27 263 1.6 3.2 0.00 0.00 0.00 70 1016.5
20260902020447 27 279 0.0 3.2 0.00 0.00 0.00 71 1016.5
20260902015947 27 288 0.0 1.6 0.00 0.00 0.00 71 1016.5
20260902015447 27 288 0.0 1.6 0.00 0.00 0.00 71 1016.5
20260902014947 27 288 0.0 1.6 0.00 0.00 0.00 71 1016.5
20260902014447 27 288 0.0 1.6 0.00 0.00 0.00 71 1016.5
20260902013947 27 288 0.0 1.6 0.00 0.00 0.00 70 1016.5
20260902013508 27 288 0.0 1.6 0.00 0.00 0.00 71 1016.5
20260902013008 27 288 0.0 1.6 0.00 0.00 0.00 70 1016.5
20260902012446 27 288 0.0 1.6 0.00 0.00 0.00 70 1016.4
20260902011947 27 288 0.0 1.6 0.00 0.00 0.00 70 1016.3
20260902011447 27 288 0.0 1.6 0.00 0.00 0.00 70 1016.3
20260902011008 27 288 0.0 1.6 0.00 0.00 0.00 69 1016.2
20260902010447 27 288 0.0 1.6 0.00 0.00 0.00 70 1016.2
20260902010008 27 0 0.0 0.0 0.00 0.00 0.00 69 1016.1
20260902005508 27 0 0.0 0.0 0.00 0.00 0.00 68 1016.1
20260902004947 27 0 0.0 0.0 0.00 0.00 0.00 68 1016.1
20260902004447 28 0 0.0 0.0 0.00 0.00 0.00 67 1016.0
20260902003946 28 0 0.0 0.0 0.00 0.00 0.00 68 1016.0
20260902003447 28 0 0.0 0.0 0.00 0.00 0.00 66 1016.0
20260902002947 28 0 0.0 0.0 0.00 0.00 0.00 66 1016.0
20260902002447 28 0 0.0 0.0 0.00 0.00 0.00 65 1016.0
20260902001947 29 0 0.0 0.0 0.00 0.00 0.00 64 1016.0
20260902001447 29 0 0.0 0.0 0.00 0.00 0.00 63 1016.1
20260902000947 30 0 0.0 0.0 0.00 0.00 0.00 62 1016.1
20260902000508 30 0 0.0 0.0 0.00 0.00 0.00 61 1016.2
20260901235947 30 0 0.0 0.0 0.00 0.00 0.00 60 1016.2
20260901235447 31 0 0.0 0.0 0.00 0.00 0.00 60 1016.2
20260901234946 31 288 0.0 1.6 0.00 0.00 0.00 58 1016.2
20260901234447 31 288 0.0 1.6 0.00 0.00 0.00 57 1016.2
20260901233947 31 291 0.0 4.8 0.00 0.00 0.00 56 1016.2
20260901233508 32 291 0.0 4.8 0.00 0.00 0.00 55 1016.3
20260901232947 32 315 0.0 1.6 0.00 0.00 0.00 54 1016.2
20260901232447 32 315 0.0 3.2 0.00 0.00 0.00 53 1016.4
20260901231947 33 274 1.6 4.8 0.00 0.00 0.00 52 1016.4
20260901231447 33 227 1.6 4.8 0.00 0.00 0.00 50 1016.4
20260901230947 33 216 1.6 9.7 0.00 0.00 0.00 49 1016.3
20260901230508 33 233 1.6 9.7 0.00 0.00 0.00 49 1016.3
20260901225947 33 243 1.6 4.8 0.00 0.00 0.00 49 1016.3
20260901225447 33 235 1.6 4.8 0.00 0.00 0.00 48 1016.3
20260901224947 33 245 1.6 6.4 0.00 0.00 0.00 49 1016.3
20260901224446 33 240 3.2 8.0 0.00 0.00 0.00 48 1016.3
20260901223948 33 198 3.2 11.3 0.00 0.00 0.00 47 1016.3
20260901223447 33 176 3.2 11.3 0.00 0.00 0.00 47 1016.2
20260901222947 33 238 1.6 6.4 0.00 0.00 0.00 47 1016.2
20260901222447 34 215 1.6 6.4 0.00 0.00 0.00 47 1016.1
20260901222008 33 173 3.2 11.3 0.00 0.00 0.00 49 1016.2
20260901221447 33 219 3.2 11.3 0.00 0.00 0.00 47 1016.2
20260901220947 34 196 3.2 8.0 0.00 0.00 0.00 48 1016.2
20260901220447 33 165 3.2 8.0 0.00 0.00 0.00 48 1016.1
20260901215946 34 186 3.2 12.9 0.00 0.00 0.00 49 1016.1
20260901215447 34 192 3.2 12.9 0.00 0.00 0.00 47 1016.2
20260901214947 34 200 3.2 12.9 0.00 0.00 0.00 47 1016.2
20260901214447 34 169 3.2 11.3 0.00 0.00 0.00 49 1016.2
20260901213947 34 152 3.2 11.3 0.00 0.00 0.00 47 1016.1
20260901213448 34 212 3.2 11.3 0.00 0.00 0.00 45 1016.1
20260901213008 35 244 3.2 8.0 0.00 0.00 0.00 46 1016.1